Andalusia, AL

4:17 AM CST on December 14, 2017 (GMT -0600)
Andalusia

Weather History for K79J - December, 2013

Change the Weather History Date:

Wednesday, December 4, 2013

  Actual Average (KCEW) Record (KCEW)
Temperature  
Mean Temperature 70 °F -  
Max Temperature 77 °F 67 °F 79 °F (2005)
Min Temperature 62 °F 39 °F 22 °F (1989)
Cooling Degree Days 4    
Growing Degree Days 20 (Base 50)    
Moisture  
Dew Point 66 °F    
Average Humidity 88    
Maximum Humidity 94    
Minimum Humidity 76    
Precipitation  
Precipitation 0.75 in - - ()
Sea Level Pressure  
Sea Level Pressure 29.96 in    
Wind  
Wind Speed 3 mph (South)    
Max Wind Speed 7 mph    
Max Gust Speed 20 mph    
Visibility 5 miles    
Events Fog , Rain    
Averages and records for this station are not official NWS values.
T = Trace of Precipitation, MM = Missing Value Source: NWS Daily Summary

Daily Weather History Graph

Daily Weather History Graph

Search for Another Location

Airport or City:

Trip Planner

Search our weather history database for the weather conditions in past years. The results will help you decide how hot, cold, wet, or windy it might be!

Date:

Astronomy

Dec. 04, 2013 Rise Set
Actual Time 6:29 AM CST 4:42 PM CST
Civil Twilight 6:02 AM CST 5:08 PM CST
Nautical Twilight 5:32 AM CST 5:39 PM CST
Astronomical Twilight 5:03 AM CST 6:08 PM CST
Moon 7:59 AM CST (12/4) 6:49 PM CST (12/4)
Length of Visible Light 11h 06m
Length of Day
10h 13m
Waxing Crescent, 4% of the Moon is Illuminated
Dec 4
Waxing Crescent
Dec 9
First Quarter
Dec 17
Full
Dec 25
Last Quarter
Jan 1
New

Hourly Weather History & Observations

Time (CST) Temp. Dew Point Humidity Pressure Visibility Wind Dir Wind Speed Gust Speed Precip Events Conditions
12:23 AM 62.6 °F 60.8 °F 94% 29.90 in 0.2 mi Calm Calm - N/A Fog Fog
12:35 AM 62.6 °F 60.8 °F 94% 29.90 in 0.2 mi Calm Calm - N/A Fog Fog
12:56 AM 63.0 °F 60.1 °F 90% 29.89 in 0.5 mi SE 3.5 mph - N/A Fog Fog
1:18 AM 62.6 °F 60.8 °F 94% 29.91 in 0.2 mi SE 3.5 mph - N/A Fog Fog
1:56 AM 63.0 °F 61.0 °F 93% 29.91 in 0.2 mi SSE 3.5 mph - N/A Fog Fog
2:56 AM 64.0 °F 61.0 °F 90% 29.91 in 0.2 mi Calm Calm - N/A Fog Fog
3:46 AM 62.6 °F 60.8 °F 94% 29.90 in 0.5 mi Variable 3.5 mph - N/A Fog Fog
3:56 AM 63.0 °F 61.0 °F 93% 29.89 in 0.5 mi South 3.5 mph - 0.01 in Fog Fog
4:56 AM 64.0 °F 62.1 °F 93% 29.91 in 0.2 mi Calm Calm - N/A Fog Fog
5:56 AM 64.0 °F 61.0 °F 90% 29.93 in 0.2 mi SSE 3.5 mph - N/A Fog Fog
6:03 AM 64.4 °F 60.8 °F 88% 29.94 in 0.5 mi Calm Calm - N/A Fog Fog
6:13 AM 64.4 °F 62.6 °F 94% 29.95 in 0.2 mi Calm Calm - N/A Fog Fog
6:56 AM 64.9 °F 62.1 °F 90% 29.95 in 0.2 mi SE 3.5 mph - N/A Fog Fog
7:56 AM 66.9 °F 64.0 °F 90% 29.97 in 0.2 mi South 3.5 mph - 0.00 in Fog Fog
8:09 AM 66.2 °F 64.4 °F 94% 29.99 in 0.5 mi South 3.5 mph - N/A Fog Fog
8:37 AM 68.0 °F 66.2 °F 94% 29.99 in 0.2 mi South 4.6 mph - N/A Fog Fog
8:56 AM 69.1 °F 66.0 °F 90% 30.00 in 0.2 mi Calm Calm - N/A Fog Fog
9:15 AM 69.8 °F 66.2 °F 88% 30.01 in 1.0 mi Calm Calm - N/A   Overcast
9:18 AM 69.8 °F 66.2 °F 88% 30.01 in 1.5 mi Calm Calm - N/A   Overcast
9:39 AM 69.8 °F 68.0 °F 94% 30.01 in 3.0 mi Calm Calm - N/A   Overcast
9:56 AM 71.1 °F 68.0 °F 90% 30.00 in 5.0 mi Variable 3.5 mph - N/A   Overcast
10:09 AM 71.6 °F 68.0 °F 88% 30.01 in 7.0 mi South 4.6 mph - N/A   Overcast
10:29 AM 73.4 °F 68.0 °F 83% 30.00 in 10.0 mi South 5.8 mph - N/A   Overcast
10:32 AM 73.4 °F 68.0 °F 83% 30.00 in 9.0 mi South 5.8 mph - N/A   Overcast
10:38 AM 73.4 °F 68.0 °F 83% 30.00 in 1.8 mi SSW 4.6 mph - 0.06 in Rain Heavy Rain
10:48 AM 73.4 °F 69.8 °F 88% 30.00 in 3.0 mi Calm Calm - 0.07 in Rain Light Rain
10:56 AM 73.0 °F 70.0 °F 90% 29.98 in 7.0 mi Calm Calm - 0.07 in   Overcast
11:04 AM 73.4 °F 69.8 °F 88% 29.99 in 8.0 mi SSW 3.5 mph - N/A   Mostly Cloudy
11:10 AM 73.4 °F 69.8 °F 88% 29.99 in 8.0 mi Calm Calm - N/A   Mostly Cloudy
11:56 AM 75.9 °F 69.1 °F 79% 29.95 in 10.0 mi South 5.8 mph - N/A   Mostly Cloudy
12:03 PM 77.0 °F 69.8 °F 78% 29.95 in 10.0 mi Calm Calm - N/A   Scattered Clouds
12:56 PM 77.0 °F 69.1 °F 76% 29.92 in 10.0 mi SSE 6.9 mph - N/A   Mostly Cloudy
1:08 PM 75.2 °F 69.8 °F 83% 29.94 in 1.2 mi Variable 4.6 mph - 0.11 in Rain Heavy Rain
1:12 PM 73.4 °F 69.8 °F 88% 29.93 in 0.5 mi Variable 4.6 mph - 0.19 in Fog , Rain Heavy Rain
1:30 PM 73.4 °F 69.8 °F 88% 29.94 in 1.2 mi WSW 5.8 mph - 0.37 in Rain Rain
1:33 PM 73.4 °F 69.8 °F 88% 29.94 in 2.0 mi SW 6.9 mph - 0.38 in Rain Rain
1:37 PM 71.6 °F 69.8 °F 94% 29.95 in 1.8 mi WSW 5.8 mph - 0.40 in Rain Heavy Rain
1:51 PM 71.6 °F 66.2 °F 83% 29.95 in 2.5 mi West 6.9 mph 19.6 mph 0.43 in Rain Rain
1:56 PM 71.1 °F 68.0 °F 90% 29.94 in 3.0 mi Variable 6.9 mph - 0.44 in Rain Rain
2:01 PM 71.6 °F 68.0 °F 88% 29.95 in 3.0 mi SW 5.8 mph - 0.00 in Rain Rain
2:04 PM 71.6 °F 66.2 °F 83% 29.95 in 2.5 mi WSW 5.8 mph - 0.01 in Rain Rain
2:06 PM 71.6 °F 66.2 °F 83% 29.95 in 3.0 mi SW 5.8 mph - 0.01 in Rain Rain
2:14 PM 71.6 °F 66.2 °F 83% 29.95 in 4.0 mi Variable 3.5 mph - 0.02 in Rain Light Rain
2:18 PM 69.8 °F 66.2 °F 88% 29.95 in 3.0 mi SW 4.6 mph - 0.02 in Rain Rain
2:31 PM 71.6 °F 66.2 °F 83% 29.95 in 6.0 mi SW 3.5 mph - 0.03 in Rain Light Rain
2:56 PM 70.0 °F 66.9 °F 90% 29.94 in 4.0 mi Calm Calm - 0.04 in Rain Light Rain
3:30 PM 69.8 °F 66.2 °F 88% 29.95 in 1.8 mi Calm Calm - 0.05 in Rain Heavy Rain
3:38 PM 69.8 °F 66.2 °F 88% 29.95 in 4.0 mi South 3.5 mph - 0.05 in Rain Light Rain
3:49 PM 69.8 °F 66.2 °F 88% 29.95 in 10.0 mi South 3.5 mph - 0.05 in   Overcast
3:56 PM 70.0 °F 66.9 °F 90% 29.94 in 10.0 mi Calm Calm - 0.05 in   Overcast
4:13 PM 69.8 °F 66.2 °F 88% 29.95 in 10.0 mi South 3.5 mph - N/A   Overcast
4:56 PM 69.1 °F 66.0 °F 90% 29.94 in 10.0 mi SSE 3.5 mph - N/A   Scattered Clouds
5:56 PM 69.1 °F 66.0 °F 90% 29.96 in 10.0 mi Calm Calm - N/A   Mostly Cloudy
6:44 PM 69.8 °F 66.2 °F 88% 29.97 in 8.0 mi South 4.6 mph - 0.01 in Rain Light Rain
6:56 PM 70.0 °F 66.9 °F 90% 29.96 in 9.0 mi South 4.6 mph - 0.01 in   Overcast
7:05 PM 71.6 °F 68.0 °F 88% 29.97 in 5.0 mi Calm Calm - 0.00 in Rain Light Rain
7:08 PM 71.6 °F 68.0 °F 88% 29.97 in 4.0 mi Calm Calm - 0.00 in Rain Light Rain
7:21 PM 71.6 °F 68.0 °F 88% 29.98 in 10.0 mi Variable 3.5 mph - 0.01 in Rain Light Rain
7:28 PM 71.6 °F 68.0 °F 88% 29.98 in 10.0 mi South 3.5 mph - 0.01 in   Overcast
7:34 PM 71.6 °F 68.0 °F 88% 29.98 in 9.0 mi South 3.5 mph - 0.01 in   Overcast
7:41 PM 71.6 °F 68.0 °F 88% 29.98 in 10.0 mi Variable 4.6 mph - 0.01 in   Overcast
7:56 PM 71.1 °F 68.0 °F 90% 29.97 in 10.0 mi South 3.5 mph - 0.01 in   Mostly Cloudy
8:25 PM 71.6 °F 68.0 °F 88% 30.00 in 10.0 mi Calm Calm - N/A   Overcast
8:37 PM 71.6 °F 68.0 °F 88% 30.00 in 10.0 mi Variable 3.5 mph - N/A   Overcast
8:56 PM 71.1 °F 68.0 °F 90% 29.98 in 10.0 mi South 3.5 mph - N/A   Overcast
9:26 PM 71.6 °F 68.0 °F 88% 30.00 in 8.0 mi South 4.6 mph - 0.00 in Rain Light Rain
9:31 PM 71.6 °F 68.0 °F 88% 30.00 in 5.0 mi South 3.5 mph - 0.00 in Rain Light Rain
9:49 PM 71.6 °F 68.0 °F 88% 30.01 in 2.5 mi Calm Calm - 0.04 in Rain Rain
9:56 PM 71.1 °F 68.0 °F 90% 30.00 in 2.0 mi Variable 3.5 mph - 0.07 in Rain Rain
10:01 PM 71.6 °F 68.0 °F 88% 30.01 in 2.0 mi Variable 4.6 mph - 0.03 in Rain Heavy Rain
10:12 PM 71.6 °F 68.0 °F 88% 30.01 in 3.0 mi South 3.5 mph - 0.04 in Rain Light Rain
10:26 PM 71.6 °F 68.0 °F 88% 30.00 in 6.0 mi SSE 3.5 mph - 0.05 in Rain Light Rain
10:56 PM 71.1 °F 68.0 °F 90% 29.99 in 10.0 mi Calm Calm - 0.05 in   Overcast
11:22 PM 69.8 °F 66.2 °F 88% 30.00 in 10.0 mi South 3.5 mph - N/A   Mostly Cloudy
11:56 PM 71.1 °F 68.0 °F 90% 29.99 in 10.0 mi Calm Calm - N/A   Overcast